Regional Weather Roundup
Issued by NWS

Home | Current Version | Previous Version | Text Only | Print | Product List | Glossary Off
Versions: 1 2 3 4 5 6 7 8 9 10 11 12 13 14 15 16 17 18 19 20 21 22 23 24 25 26 27 28 29 30 31 32 33 34 35 36 37 38 39 40 41 42 43 44 45 46 47 48 49 50

000
ASUS43 KDMX 020607
RWRIA

WEATHER ROUNDUP FOR IOWA
NATIONAL WEATHER SERVICE DES MOINES IA
100 AM CDT SUN AUG 02 2015

NOTE: "FAIR" INDICATES FEW OR NO CLOUDS BELOW 12,000 FEET WITH NO
SIGNIFICANT WEATHER AND/OR OBSTRUCTIONS TO VISIBILITY.

* - THESE STATIONS ARE NOT NWS STATIONS...THUS NOT UNDER NWS
QUALITY CONTROL.  THEY ALSO DO NOT REPORT WEATHER SUCH
AS PRECIPITATION OR FOG.

IAZ001>003-012>014-020>022-031>034-043>046-020700-
   NORTHWEST IOWA

CITY           SKY/WX    TMP DP  RH WIND       PRES   REMARKS
CARROLL *      CLEAR     72  70  94 SW12      29.89F
CHEROKEE *     PTCLDY    68  68  99 S5        29.87F
DENISON *      CLEAR     70  68  94 S5        29.89S
LE MARS *      CLEAR     68  66  94 CALM      29.87F
ORANGE CITY *  CLEAR     66  63  88 S7        29.86F
SHELDON *      CLEAR     70  66  88 SW10      29.84F
SIOUX CITY     CLEAR     68  63  84 E6        29.87F
6HR MIN TEMP:  67; 6HR MAX TEMP:  81;

SPENCER        PTCLDY    71  66  84 S9        29.85F
6HR MIN TEMP:  70; 6HR MAX TEMP:  82;

STORM LAKE *   CLEAR     70  68  94 SW9       29.90S
$$

IAZ055>058-069>071-079>083-090>094-020700-
   SOUTHWEST IOWA

CITY           SKY/WX    TMP DP  RH WIND       PRES   REMARKS
ATLANTIC *     PTCLDY    72  68  88 S9        29.92F
AUDUBON *      CLEAR     72  68  88 S8        29.93S
CLARINDA *     CLEAR     70  64  83 S6        29.96S
COUNCIL BLFS * CLEAR     73  72  94 S10       29.92F
CRESTON *      CLEAR     70  64  83 S10       29.95F
HARLAN  *      CLEAR     70  70 100 S8        29.95S
LAMONI         CLEAR     70  66  87 SW9       29.94F
6HR MIN TEMP:  70; 6HR MAX TEMP:  86;

RED OAK *      PTCLDY    72  64  78 S9        29.93F
SHENANDOAH *   CLEAR     72  64  78 VRB7      29.94S
$$

IAZ047>049-059>061-072>074-084-020700-
   CENTRAL IOWA

CITY           SKY/WX    TMP DP  RH WIND       PRES   REMARKS
AMES           CLEAR     71  68  90 SW7       29.89F
6HR MIN TEMP:  70; 6HR MAX TEMP:  83;

ANKENY *       CLEAR     75  68  78 SW10G16   29.90S
CHARITON *     CLEAR     72  68  88 SW6       29.93F
DES MOINES     PTCLDY    76  67  73 SW12      29.90F
6HR MIN TEMP:  76; 6HR MAX TEMP:  87;

GRINNELL*      CLEAR     73  68  83 SW8       29.91S
KNOXVILLE *    CLEAR     73  68  83 SW9       29.90F
MARSHALLTOWN   CLEAR     73  70  90 SW8       29.89F
6HR MIN TEMP:  72; 6HR MAX TEMP:  82;

PELLA *        CLEAR     74  71  89 SW8       29.91F
PERRY *          N/A     73  70  88 SW8       29.90F
$$

IAZ004>006-015-016-023>025-035-036-020700-
   NORTH CENTRAL IOWA

CITY           SKY/WX    TMP DP  RH WIND       PRES   REMARKS
ALGONA *       CLEAR     68  66  94 S9        29.86F
CLARION *      CLEAR     66  64  94 S7        29.88F
ESTHERVILLE    PTCLDY    70  66  87 SW10      29.84F
6HR MIN TEMP:  69; 6HR MAX TEMP:  80;

FORT DODGE *   CLEAR     70  66  88 SW6       29.89F
MASON CITY     CLEAR     73  69  87 SW13      29.87F
6HR MIN TEMP:  69; 6HR MAX TEMP:  83;

FOREST CITY *  CLEAR     68  68 100 S9        29.85F
IOWA FALLS *     N/A     71  69  93 SW8       29.90S
$$

IAZ007>011-017>019-026>030-037>042-050>054-066-020700-
   NORTHEAST IOWA

CITY           SKY/WX    TMP DP  RH WIND       PRES   REMARKS
CEDAR RAPIDS   CLEAR     72  71  97 SW5       29.89F
6HR MIN TEMP:  69; 6HR MAX TEMP:  81;

CHARLES CITY * CLEAR     70  70 100 SW8       29.87F
CLINTON *      CLEAR     66  64  94 SW7       29.92F
DECORAH *      CLEAR     72  70  94 SW10G16   29.85F
DUBUQUE        CLEAR     72  68  87 SW10      29.89F
6HR MIN TEMP:  69; 6HR MAX TEMP:  81;

MONTICELLO *   CLEAR     70  68  94 CALM      29.89F
OELWEIN *        N/A     72  70  94 S8        29.89F
WATERLOO       PTCLDY    73  69  87 SW8       29.87F
6HR MIN TEMP:  72; 6HR MAX TEMP:  83;

$$

IAZ064-065-067-068-078-020700-
   EAST CENTRAL IOWA

CITY           SKY/WX    TMP DP  RH WIND       PRES   REMARKS
DAVENPORT      CLEAR     73  70  90 SW8       29.91F
6HR MIN TEMP:  71; 6HR MAX TEMP:  80;

IOWA CITY      CLEAR     74  70  87 SW6       29.90F
6HR MIN TEMP:  73; 6HR MAX TEMP:  84;

MT. PLEASANT * CLEAR     72  68  87 S3        29.93S
MUSCATINE *    CLEAR     73  70  88 SE5       29.91F
QUAD CITIES    CLEAR     75  69  81 SW6       29.91S
6HR MIN TEMP:  73; 6HR MAX TEMP:  82;

$$

IAZ062-063-075>077-085>089-095>099-020700-
   SOUTHEAST IOWA

CITY           SKY/WX    TMP DP  RH WIND       PRES   REMARKS
BURLINGTON     CLEAR     71  70  96 S5        29.93S
6HR MIN TEMP:  71; 6HR MAX TEMP:  83;

FAIRFIELD *    CLEAR     70  66  88 SW5       29.92F
FORT MADISON * CLEAR     72  70  94 SW6       29.94F
KEOKUK *       CLEAR     72  68  88 SW5       29.93F
OSKALOOSA *      N/A     69  67  94 SW5       29.91F
CENTERVILLE *  CLEAR     66  66 100 CALM      29.95S
OTTUMWA        CLEAR     70  68  93 SW9       29.90F
6HR MIN TEMP:  70; 6HR MAX TEMP:  84;

WASHINGTON *   CLEAR     72  72 100 SW6       29.92F
$$

ABBREVIATIONS USED IN REMARKS
   TC - TEMPERATURES IN CELSIUS
  WCI - WIND CHILL INDEX
   HX - HEAT INDEX
  VSB - VISIBILITY
$$



USA.gov is the U.S. government's official web portal to all federal, state and local government web resources and services.